QFA133 YSSY-FSIA

Flight info

Callsign QFA133
Flight time N/A
Altitude 38000
Route KADOM H44 BORLI Q32 KAMBI/N0492F320 Q32 NODEV Q10 MALUP Q158 PH T12 MERIB L894 SINAM/N0496F340 L894 SAKEG/N0492F360 L894 IDEVI R212 GUDUG UR212 EGPOT/N0487F380 UR212 PERRY DCT TILOM TILOM1E
Aircraft B772/H-SDE2E3FGHIJ5LORVWXY/LB1D1

Departure

Time N/A
Airport Sydney Kingsford Smith International Airport (YSSY)

Arrival

Time 2026-04-17 00:00
Airport Seychelles International Airport (FSIA)
Time Latitude Longitude Altitude Speed Heading
2026-04-16 19:22 -11.13205 88.45470 32847 ft 492 kts 314°
2026-04-16 19:22 -11.10845 88.42948 33137 ft 492 kts 314°
2026-04-16 19:22 -11.08491 88.40432 33428 ft 491 kts 314°
2026-04-16 19:22 -11.06134 88.37914 33701 ft 491 kts 314°
2026-04-16 19:23 -11.03778 88.35397 33990 ft 490 kts 314°
2026-04-16 19:23 -11.01427 88.32887 34244 ft 489 kts 314°
2026-04-16 19:23 -10.99080 88.30382 34508 ft 488 kts 314°
2026-04-16 19:23 -10.96735 88.27879 34764 ft 487 kts 314°
2026-04-16 19:24 -10.94429 88.25418 35024 ft 487 kts 314°
2026-04-16 19:24 -10.92065 88.22897 35283 ft 486 kts 314°
2026-04-16 19:24 -10.89759 88.20438 35542 ft 485 kts 314°
2026-04-16 19:24 -10.87430 88.17954 35803 ft 484 kts 314°
2026-04-16 19:25 -10.85103 88.15473 36051 ft 484 kts 314°
2026-04-16 19:25 -10.82776 88.12993 36252 ft 484 kts 314°
2026-04-16 19:25 -10.80457 88.10523 36507 ft 483 kts 314°
2026-04-16 19:25 -10.78132 88.08046 36753 ft 482 kts 314°
2026-04-16 19:26 -10.75820 88.05584 36988 ft 482 kts 314°
2026-04-16 19:26 -10.73505 88.03119 37208 ft 481 kts 314°
2026-04-16 19:26 -10.71194 88.00659 37439 ft 481 kts 314°
2026-04-16 19:26 -10.68884 87.98201 37633 ft 481 kts 314°
2026-04-16 19:27 -10.66574 87.95743 37768 ft 482 kts 314°
2026-04-16 19:27 -10.61951 87.90826 37850 ft 484 kts 314°
2026-04-16 19:28 -10.57300 87.85882 37845 ft 481 kts 314°
2026-04-16 19:28 -10.52692 87.80985 37847 ft 478 kts 314°
2026-04-16 19:29 -10.48113 87.76121 37854 ft 475 kts 314°
2026-04-16 19:29 -10.43545 87.71273 37854 ft 475 kts 314°
2026-04-16 19:30 -10.38975 87.66423 37858 ft 476 kts 314°
2026-04-16 19:30 -10.34375 87.61545 37859 ft 478 kts 314°
2026-04-16 19:31 -10.29768 87.56660 37858 ft 480 kts 314°
2026-04-16 19:31 -10.25140 87.51756 37856 ft 482 kts 314°
2026-04-16 19:32 -10.20491 87.46832 37854 ft 483 kts 314°
2026-04-16 19:32 -10.15842 87.41909 37856 ft 483 kts 314°
2026-04-16 19:33 -10.11188 87.36984 37853 ft 483 kts 314°
2026-04-16 19:33 -10.06570 87.32099 37856 ft 482 kts 314°
2026-04-16 19:34 -10.01926 87.27189 37853 ft 482 kts 314°
2026-04-16 19:34 -9.97291 87.22291 37857 ft 481 kts 314°
2026-04-16 19:35 -9.92667 87.17406 37856 ft 480 kts 314°
2026-04-16 19:35 -9.88044 87.12524 37855 ft 479 kts 314°
2026-04-16 19:36 -9.83428 87.07652 37854 ft 478 kts 314°
2026-04-16 19:36 -9.78819 87.02790 37854 ft 478 kts 314°
2026-04-16 19:37 -9.74209 86.97928 37855 ft 478 kts 314°
2026-04-16 19:37 -9.69602 86.93072 37856 ft 478 kts 314°
2026-04-16 19:38 -9.65023 86.88247 37856 ft 478 kts 314°
2026-04-16 19:38 -9.60419 86.83398 37858 ft 478 kts 314°
2026-04-16 19:39 -9.55810 86.78545 37857 ft 478 kts 314°
2026-04-16 19:39 -9.51187 86.73681 37852 ft 478 kts 314°
2026-04-16 19:40 -9.46567 86.68821 37855 ft 478 kts 314°
2026-04-16 19:40 -9.41952 86.63968 37853 ft 479 kts 314°
2026-04-16 19:41 -9.37335 86.59115 37855 ft 479 kts 314°
2026-04-16 19:41 -9.32709 86.54255 37858 ft 479 kts 314°
2026-04-16 19:42 -9.28116 86.49432 37857 ft 479 kts 314°
2026-04-16 19:42 -9.23481 86.44566 37858 ft 479 kts 314°
2026-04-16 19:43 -9.18858 86.39714 37856 ft 479 kts 314°
2026-04-16 19:43 -9.14232 86.34862 37857 ft 479 kts 314°
2026-04-16 19:44 -9.09608 86.30014 37859 ft 479 kts 314°
2026-04-16 19:44 -9.04978 86.25161 37860 ft 479 kts 314°
2026-04-16 19:45 -9.00353 86.20315 37858 ft 479 kts 314°
2026-04-16 19:45 -8.95748 86.15493 37854 ft 479 kts 314°
2026-04-16 19:46 -8.91123 86.10651 37854 ft 479 kts 314°
2026-04-16 19:46 -8.86489 86.05802 37856 ft 479 kts 314°
2026-04-16 19:47 -8.81853 86.00953 37856 ft 479 kts 314°
2026-04-16 19:47 -8.77220 85.96108 37854 ft 479 kts 314°
2026-04-16 19:48 -8.72576 85.91254 37859 ft 480 kts 314°
2026-04-16 19:48 -8.67931 85.86401 37858 ft 480 kts 314°
2026-04-16 19:49 -8.63286 85.81548 37860 ft 480 kts 314°
2026-04-16 19:49 -8.58667 85.76726 37856 ft 480 kts 314°
2026-04-16 19:50 -8.54020 85.71876 37858 ft 480 kts 314°
2026-04-16 19:50 -8.49372 85.67027 37861 ft 480 kts 314°
2026-04-16 19:51 -8.44724 85.62180 37860 ft 480 kts 314°
2026-04-16 19:51 -8.40067 85.57324 37858 ft 481 kts 314°
2026-04-16 19:52 -8.35413 85.52474 37855 ft 481 kts 314°
2026-04-16 19:52 -8.30753 85.47618 37858 ft 481 kts 314°
2026-04-16 19:53 -8.26094 85.42766 37856 ft 481 kts 314°
2026-04-16 19:53 -8.21430 85.37909 37857 ft 481 kts 314°
2026-04-16 19:54 -8.16799 85.33089 37856 ft 481 kts 314°
2026-04-16 19:54 -8.12128 85.28234 37859 ft 481 kts 314°
2026-04-16 19:55 -8.07460 85.23383 37859 ft 482 kts 314°
2026-04-16 19:55 -8.03581 85.19351 37859 ft 482 kts 315°
2026-04-16 19:56 -7.98911 85.14498 37856 ft 482 kts 315°
2026-04-16 19:56 -7.94239 85.09645 37860 ft 482 kts 315°
2026-04-16 19:57 -7.89561 85.04788 37858 ft 482 kts 315°
2026-04-16 19:57 -7.84882 84.99930 37859 ft 482 kts 315°
2026-04-16 19:58 -7.80198 84.95070 37852 ft 483 kts 315°
2026-04-16 19:58 -7.75514 84.90212 37853 ft 483 kts 315°
2026-04-16 19:59 -7.70867 84.85392 37862 ft 483 kts 315°
2026-04-16 19:59 -7.66179 84.80532 37860 ft 483 kts 315°
2026-04-16 20:00 -7.59254 84.73357 37859 ft 483 kts 315°
2026-04-16 20:00 -7.54554 84.68488 37861 ft 484 kts 315°
2026-04-16 20:01 -7.49861 84.63629 37857 ft 484 kts 315°
2026-04-16 20:01 -7.45168 84.58771 37849 ft 484 kts 315°
2026-04-16 20:02 -7.40471 84.53911 37850 ft 484 kts 315°
2026-04-16 20:02 -7.35768 84.49046 37857 ft 484 kts 315°
2026-04-16 20:03 -7.31064 84.44181 37853 ft 484 kts 315°
2026-04-16 20:03 -7.26394 84.39355 37854 ft 485 kts 315°
2026-04-16 20:04 -7.21690 84.34493 37853 ft 485 kts 315°
2026-04-16 20:04 -7.16977 84.29624 37854 ft 485 kts 315°
2026-04-16 20:05 -7.12266 84.24759 37863 ft 485 kts 315°
2026-04-16 20:05 -7.07550 84.19890 37852 ft 485 kts 315°
2026-04-16 20:06 -7.02835 84.15022 37856 ft 485 kts 315°
2026-04-16 20:06 -6.98118 84.10155 37857 ft 485 kts 315°
2026-04-16 20:07 -6.93405 84.05294 37857 ft 485 kts 315°
2026-04-16 20:07 -6.88692 84.00435 37855 ft 485 kts 315°
2026-04-16 20:08 -6.83980 83.95577 37854 ft 485 kts 315°
2026-04-16 20:08 -6.79270 83.90723 37856 ft 485 kts 315°
2026-04-16 20:09 -6.74547 83.85857 37854 ft 485 kts 315°
2026-04-16 20:09 -6.69857 83.81026 37849 ft 485 kts 315°
2026-04-16 20:10 -6.65142 83.76171 37859 ft 485 kts 315°
2026-04-16 20:10 -6.60421 83.71311 37857 ft 485 kts 315°
2026-04-16 20:11 -6.55695 83.66448 37852 ft 486 kts 315°
2026-04-16 20:11 -6.50966 83.61583 37849 ft 486 kts 315°
2026-04-16 20:12 -6.46246 83.56728 37855 ft 486 kts 315°
2026-04-16 20:12 -6.41514 83.51863 37854 ft 486 kts 315°
2026-04-16 20:13 -6.36776 83.46992 37856 ft 486 kts 315°
2026-04-16 20:13 -6.32076 83.42161 37855 ft 487 kts 315°
2026-04-16 20:14 -6.27651 83.37614 37863 ft 487 kts 315°
2026-04-16 20:14 -6.23388 83.32378 37850 ft 486 kts 294°
2026-04-16 20:15 -6.22338 83.29160 37856 ft 486 kts 280°
2026-04-16 20:15 -6.22129 83.25778 37848 ft 486 kts 265°
2026-04-16 20:15 -6.22934 83.19029 37858 ft 488 kts 263°
2026-04-16 20:16 -6.23801 83.12248 37868 ft 491 kts 263°
2026-04-16 20:16 -6.24613 83.05414 37859 ft 493 kts 263°
2026-04-16 20:17 -6.25378 82.98598 37861 ft 494 kts 263°
2026-04-16 20:17 -6.26135 82.91740 37855 ft 494 kts 263°
2026-04-16 20:18 -6.26891 82.84886 37859 ft 492 kts 263°
2026-04-16 20:18 -6.27647 82.78059 37852 ft 490 kts 263°
2026-04-16 20:19 -6.28400 82.71256 37862 ft 489 kts 263°
2026-04-16 20:19 -6.29150 82.64470 37856 ft 487 kts 263°
2026-04-16 20:20 -6.29898 82.57701 37858 ft 486 kts 263°
2026-04-16 20:20 -6.30642 82.50954 37852 ft 486 kts 263°
2026-04-16 20:21 -6.31385 82.44207 37855 ft 486 kts 263°
2026-04-16 20:21 -6.32124 82.37498 37852 ft 486 kts 263°
2026-04-16 20:22 -6.32866 82.30745 37864 ft 486 kts 263°
2026-04-16 20:22 -6.33608 82.23982 37861 ft 487 kts 263°
2026-04-16 20:23 -6.34350 82.17218 37854 ft 487 kts 263°
2026-04-16 20:23 -6.35092 82.10442 37862 ft 487 kts 263°
2026-04-16 20:24 -6.35833 82.03665 37857 ft 488 kts 263°
2026-04-16 20:24 -6.36574 81.96883 37854 ft 488 kts 263°
2026-04-16 20:25 -6.37314 81.90108 37860 ft 488 kts 263°
2026-04-16 20:25 -6.38054 81.83315 37858 ft 488 kts 263°
2026-04-16 20:26 -6.38787 81.76575 37854 ft 488 kts 263°
2026-04-16 20:26 -6.39525 81.69785 37860 ft 488 kts 263°
2026-04-16 20:27 -6.40262 81.63000 37852 ft 488 kts 263°
2026-04-16 20:27 -6.40997 81.56218 37866 ft 488 kts 263°
2026-04-16 20:28 -6.41733 81.49426 37858 ft 488 kts 263°
2026-04-16 20:28 -6.42467 81.42641 37862 ft 488 kts 263°
2026-04-16 20:29 -6.43194 81.35911 37855 ft 487 kts 263°
2026-04-16 20:29 -6.43925 81.29140 37853 ft 487 kts 263°
2026-04-16 20:30 -6.44649 81.22418 37855 ft 487 kts 264°
2026-04-16 20:30 -6.45378 81.15643 37856 ft 487 kts 263°
2026-04-16 20:31 -6.46106 81.08868 37854 ft 487 kts 264°
2026-04-16 20:31 -6.46833 81.02105 37854 ft 487 kts 264°
2026-04-16 20:32 -6.47559 80.95333 37855 ft 486 kts 264°
2026-04-16 20:32 -6.48283 80.88571 37857 ft 486 kts 264°
2026-04-16 20:33 -6.49006 80.81811 37853 ft 486 kts 264°
2026-04-16 20:33 -6.49721 80.75112 37857 ft 485 kts 264°
2026-04-16 20:34 -6.50440 80.68373 37853 ft 485 kts 264°
2026-04-16 20:34 -6.51158 80.61633 37857 ft 484 kts 264°
2026-04-16 20:35 -6.51874 80.54905 37856 ft 483 kts 264°
2026-04-16 20:35 -6.52590 80.48172 37857 ft 483 kts 264°
2026-04-16 20:36 -6.53302 80.41460 37846 ft 483 kts 264°
2026-04-16 20:36 -6.54014 80.34740 37855 ft 482 kts 264°
2026-04-16 20:37 -6.54720 80.28081 37855 ft 482 kts 264°
2026-04-16 20:37 -6.55427 80.21388 37855 ft 481 kts 264°
2026-04-16 20:38 -6.56134 80.14694 37854 ft 481 kts 264°
2026-04-16 20:38 -6.56839 80.08008 37853 ft 480 kts 264°
2026-04-16 20:39 -6.57543 80.01328 37857 ft 480 kts 264°
2026-04-16 20:39 -6.58241 79.94687 37852 ft 479 kts 264°
2026-04-16 20:40 -6.58940 79.88032 37848 ft 479 kts 264°
2026-04-16 20:40 -6.59639 79.81373 37853 ft 478 kts 264°
2026-04-16 20:41 -6.60336 79.74725 37855 ft 478 kts 264°
2026-04-16 20:41 -6.61031 79.68081 37849 ft 477 kts 264°
2026-04-16 20:42 -6.61609 79.62553 37851 ft 477 kts 264°
2026-04-16 20:42 -6.62301 79.55926 37853 ft 477 kts 264°
2026-04-16 20:43 -6.62993 79.49286 37855 ft 476 kts 264°
2026-04-16 20:43 -6.63683 79.42662 37850 ft 476 kts 264°
2026-04-16 20:44 -6.64372 79.36038 37849 ft 476 kts 264°
2026-04-16 20:44 -6.65060 79.29413 37849 ft 476 kts 264°
2026-04-16 20:45 -6.65747 79.22795 37855 ft 476 kts 264°
2026-04-16 20:45 -6.66433 79.16170 37857 ft 476 kts 264°
2026-04-16 20:46 -6.67118 79.09542 37852 ft 476 kts 264°
2026-04-16 20:46 -6.67803 79.02916 37857 ft 476 kts 264°
2026-04-16 20:47 -6.68483 78.96330 37858 ft 477 kts 264°
2026-04-16 20:47 -6.69166 78.89697 37851 ft 476 kts 264°
2026-04-16 20:48 -6.69849 78.83064 37849 ft 476 kts 264°
2026-04-16 20:48 -6.70529 78.76440 37855 ft 476 kts 264°
2026-04-16 20:49 -6.71210 78.69805 37846 ft 476 kts 264°
2026-04-16 20:49 -6.71885 78.63225 37855 ft 476 kts 264°
2026-04-16 20:50 -6.72563 78.56605 37853 ft 476 kts 264°
2026-04-16 20:50 -6.73240 78.49981 37847 ft 476 kts 264°
2026-04-16 20:51 -6.73916 78.43352 37847 ft 476 kts 264°
2026-04-16 20:51 -6.74591 78.36733 37845 ft 476 kts 264°
2026-04-16 20:52 -6.75266 78.30106 37855 ft 475 kts 264°
2026-04-16 20:52 -6.75938 78.23493 37853 ft 475 kts 264°
2026-04-16 20:53 -6.76611 78.16869 37844 ft 475 kts 264°
2026-04-16 20:53 -6.77277 78.10294 37853 ft 475 kts 264°
2026-04-16 20:54 -6.77946 78.03689 37846 ft 475 kts 264°
2026-04-16 20:54 -6.78615 77.97079 37845 ft 475 kts 264°
2026-04-16 20:55 -6.79283 77.90464 37853 ft 474 kts 264°
2026-04-16 20:55 -6.79949 77.83862 37854 ft 474 kts 264°
2026-04-16 20:56 -6.80610 77.77297 37844 ft 474 kts 264°
2026-04-16 20:56 -6.81273 77.70699 37848 ft 473 kts 264°
2026-04-16 20:57 -6.81935 77.64106 37845 ft 473 kts 264°
2026-04-16 20:57 -6.82596 77.57520 37849 ft 473 kts 264°
2026-04-16 20:58 -6.83255 77.50942 37858 ft 472 kts 264°
2026-04-16 20:58 -6.83912 77.44370 37844 ft 472 kts 264°
2026-04-16 20:59 -6.84568 77.37803 37856 ft 471 kts 264°
2026-04-16 20:59 -6.85222 77.31247 37853 ft 471 kts 264°
2026-04-16 21:00 -6.85875 77.24688 37860 ft 471 kts 264°
2026-04-16 21:00 -6.86527 77.18133 37850 ft 470 kts 264°
2026-04-16 21:01 -6.87177 77.11590 37851 ft 469 kts 264°
2026-04-16 21:01 -6.87825 77.05053 37854 ft 469 kts 264°
2026-04-16 21:02 -6.88468 76.98565 37847 ft 469 kts 264°
2026-04-16 21:03 -6.89438 76.88757 37843 ft 469 kts 264°
2026-04-16 21:03 -6.90083 76.82222 37848 ft 469 kts 264°
2026-04-16 21:04 -6.90725 76.75702 37849 ft 468 kts 264°
2026-04-16 21:04 -6.91369 76.69161 37844 ft 468 kts 264°
2026-04-16 21:05 -6.92010 76.62639 37849 ft 468 kts 264°
2026-04-16 21:05 -6.92647 76.56152 37853 ft 468 kts 264°
2026-04-16 21:06 -6.93286 76.49630 37857 ft 468 kts 264°
2026-04-16 21:06 -6.93925 76.43103 37852 ft 468 kts 264°
2026-04-16 21:07 -6.94562 76.36587 37852 ft 468 kts 264°
2026-04-16 21:07 -6.95199 76.30061 37853 ft 468 kts 264°
2026-04-16 21:08 -6.95834 76.23542 37842 ft 468 kts 264°
2026-04-16 21:08 -6.96469 76.17020 37843 ft 468 kts 264°
2026-04-16 21:09 -6.97101 76.10510 37853 ft 468 kts 264°
2026-04-16 21:09 -6.97730 76.04029 37850 ft 467 kts 264°
2026-04-16 21:10 -6.98361 75.97522 37843 ft 467 kts 264°
2026-04-16 21:10 -6.98990 75.91013 37855 ft 467 kts 264°
2026-04-16 21:11 -6.99619 75.84511 37850 ft 467 kts 264°
2026-04-16 21:11 -7.00247 75.78000 37852 ft 467 kts 264°
2026-04-16 21:12 -7.00873 75.71501 37847 ft 467 kts 264°
2026-04-16 21:12 -7.01498 75.65001 37854 ft 467 kts 264°
2026-04-16 21:13 -7.02124 75.58487 37846 ft 467 kts 264°
2026-04-16 21:13 -7.02747 75.51990 37845 ft 467 kts 264°
2026-04-16 21:14 -7.03370 75.45480 37851 ft 467 kts 264°
2026-04-16 21:14 -7.03989 75.39014 37855 ft 467 kts 264°
2026-04-16 21:15 -7.04609 75.32517 37843 ft 466 kts 264°
2026-04-16 21:15 -7.05229 75.26017 37852 ft 466 kts 265°
2026-04-16 21:16 -7.05847 75.19522 37845 ft 466 kts 265°
2026-04-16 21:16 -7.06465 75.13022 37849 ft 465 kts 265°
2026-04-16 21:17 -7.07081 75.06536 37849 ft 465 kts 265°
2026-04-16 21:17 -7.07695 75.00059 37849 ft 465 kts 265°
2026-04-16 21:18 -7.08312 74.93582 37849 ft 465 kts 265°
2026-04-16 21:18 -7.08931 74.87102 37841 ft 464 kts 265°
2026-04-16 21:19 -7.09548 74.80625 37850 ft 464 kts 265°
2026-04-16 21:19 -7.10160 74.74200 37841 ft 464 kts 265°
2026-04-16 21:20 -7.10773 74.67741 37847 ft 463 kts 265°
2026-04-16 21:20 -7.11385 74.61281 37841 ft 463 kts 265°
2026-04-16 21:21 -7.11996 74.54824 37842 ft 463 kts 265°
2026-04-16 21:21 -7.12607 74.48362 37840 ft 463 kts 265°
2026-04-16 21:22 -7.13216 74.41910 37854 ft 463 kts 265°
2026-04-16 21:22 -7.13820 74.35505 37851 ft 462 kts 265°
2026-04-16 21:23 -7.14426 74.29058 37855 ft 463 kts 265°
2026-04-16 21:23 -7.15033 74.22604 37851 ft 463 kts 265°
2026-04-16 21:24 -7.15637 74.16161 37849 ft 463 kts 265°
2026-04-16 21:24 -7.16242 74.09703 37849 ft 463 kts 265°
2026-04-16 21:25 -7.16846 74.03253 37844 ft 463 kts 265°
2026-04-16 21:25 -7.17449 73.96791 37853 ft 463 kts 265°
2026-04-16 21:26 -7.18047 73.90376 37849 ft 463 kts 265°
2026-04-16 21:26 -7.18649 73.83917 37841 ft 463 kts 265°
2026-04-16 21:27 -7.19250 73.77450 37855 ft 463 kts 265°
2026-04-16 21:27 -7.19850 73.70984 37851 ft 464 kts 265°
2026-04-16 21:28 -7.20449 73.64515 37840 ft 464 kts 265°
2026-04-16 21:28 -7.21048 73.58051 37857 ft 464 kts 265°
2026-04-16 21:29 -7.21646 73.51578 37841 ft 464 kts 265°
2026-04-16 21:29 -7.22243 73.45108 37851 ft 464 kts 265°
2026-04-16 21:30 -7.22838 73.38638 37848 ft 464 kts 265°
2026-04-16 21:30 -7.23334 73.33249 37839 ft 464 kts 265°
2026-04-16 21:31 -7.23929 73.26772 37850 ft 464 kts 265°
2026-04-16 21:31 -7.24523 73.20299 37837 ft 464 kts 265°
2026-04-16 21:32 -7.25115 73.13828 37851 ft 464 kts 265°
2026-04-16 21:32 -7.25703 73.07399 37847 ft 464 kts 266°
2026-04-16 21:33 -7.26293 73.00932 37848 ft 464 kts 266°
2026-04-16 21:33 -7.26882 72.94465 37854 ft 464 kts 266°
2026-04-16 21:34 -7.27471 72.87993 37852 ft 464 kts 266°
2026-04-16 21:34 -7.28059 72.81522 37861 ft 464 kts 266°
2026-04-16 21:35 -7.28645 72.75058 37863 ft 464 kts 266°
2026-04-16 21:35 -7.29231 72.68590 37857 ft 464 kts 266°
2026-04-16 21:36 -7.29815 72.62123 37859 ft 463 kts 266°
2026-04-16 21:36 -7.30398 72.55663 37861 ft 463 kts 266°
2026-04-16 21:37 -7.30981 72.49198 37878 ft 463 kts 266°
2026-04-16 21:37 -7.31535 72.42740 37862 ft 462 kts 268°
2026-04-16 21:38 -7.31320 72.36300 37868 ft 460 kts 276°
2026-04-16 21:38 -7.30684 72.29924 37864 ft 460 kts 276°
2026-04-16 21:39 -7.30048 72.23512 37873 ft 460 kts 276°
2026-04-16 21:39 -7.29434 72.17101 37854 ft 460 kts 276°
2026-04-16 21:40 -7.28829 72.10685 37850 ft 460 kts 276°
2026-04-16 21:40 -7.28226 72.04278 37840 ft 460 kts 276°
2026-04-16 21:41 -7.27621 71.97874 37846 ft 460 kts 276°
2026-04-16 21:41 -7.27014 71.91460 37846 ft 460 kts 276°
2026-04-16 21:42 -7.26410 71.85087 37848 ft 460 kts 276°
2026-04-16 21:42 -7.25802 71.78680 37854 ft 460 kts 276°
2026-04-16 21:43 -7.25193 71.72274 37844 ft 460 kts 276°
2026-04-16 21:43 -7.24582 71.65857 37844 ft 460 kts 276°
2026-04-16 21:44 -7.23970 71.59447 37844 ft 460 kts 276°
2026-04-16 21:44 -7.23358 71.53032 37843 ft 460 kts 276°
2026-04-16 21:45 -7.22744 71.46620 37851 ft 460 kts 276°
2026-04-16 21:45 -7.22130 71.40202 37858 ft 460 kts 276°
2026-04-16 21:46 -7.21514 71.33787 37851 ft 461 kts 276°
2026-04-16 21:46 -7.20896 71.27355 37844 ft 461 kts 276°
2026-04-16 21:47 -7.20282 71.20972 37858 ft 461 kts 276°
2026-04-16 21:47 -7.19663 71.14543 37842 ft 461 kts 276°
2026-04-16 21:48 -7.19038 71.08074 37845 ft 461 kts 276°
2026-04-16 21:48 -7.18420 71.01675 37850 ft 462 kts 276°
2026-04-16 21:49 -7.17797 70.95236 37846 ft 462 kts 276°
2026-04-16 21:49 -7.17172 70.88794 37851 ft 462 kts 276°
2026-04-16 21:50 -7.16547 70.82347 37846 ft 462 kts 277°
2026-04-16 21:50 -7.15921 70.75908 37844 ft 462 kts 277°
2026-04-16 21:51 -7.15298 70.69510 37843 ft 462 kts 277°
2026-04-16 21:51 -7.14670 70.63072 37861 ft 462 kts 277°
2026-04-16 21:52 -7.14041 70.56632 37842 ft 462 kts 277°
2026-04-16 21:52 -7.13411 70.50181 37844 ft 462 kts 277°
2026-04-16 21:53 -7.12781 70.43748 37861 ft 462 kts 277°
2026-04-16 21:53 -7.12149 70.37307 37861 ft 462 kts 277°
2026-04-16 21:54 -7.11517 70.30873 37840 ft 462 kts 277°
2026-04-16 21:54 -7.10884 70.24432 37846 ft 462 kts 277°
2026-04-16 21:55 -7.10250 70.17991 37861 ft 462 kts 277°
2026-04-16 21:55 -7.09614 70.11548 37866 ft 462 kts 277°
2026-04-16 21:56 -7.08978 70.05103 37851 ft 462 kts 277°
2026-04-16 21:56 -7.08346 69.98712 37860 ft 462 kts 277°
2026-04-16 21:57 -7.07707 69.92265 37844 ft 462 kts 277°
2026-04-16 21:57 -7.07069 69.85831 37864 ft 462 kts 277°
2026-04-16 21:58 -7.06429 69.79385 37857 ft 462 kts 277°
2026-04-16 21:58 -7.05788 69.72944 37858 ft 463 kts 277°
2026-04-16 21:59 -7.05147 69.66505 37846 ft 463 kts 277°
2026-04-16 21:59 -7.04504 69.60058 37858 ft 463 kts 277°
2026-04-16 22:00 -7.03860 69.53607 37841 ft 463 kts 277°
2026-04-16 22:00 -7.03230 69.47153 37844 ft 463 kts 277°
2026-04-16 22:01 -7.02612 69.40697 37844 ft 463 kts 277°
2026-04-16 22:01 -7.01997 69.34282 37865 ft 463 kts 277°
2026-04-16 22:02 -7.01374 69.27817 37847 ft 464 kts 277°
2026-04-16 22:02 -7.00749 69.21357 37858 ft 464 kts 277°
2026-04-16 22:03 -7.00124 69.14895 37856 ft 464 kts 277°
2026-04-16 22:03 -6.99498 69.08434 37848 ft 464 kts 277°
2026-04-16 22:04 -6.98870 69.01965 37845 ft 464 kts 277°
2026-04-16 22:04 -6.98242 68.95505 37862 ft 464 kts 276°
2026-04-16 22:05 -6.97614 68.89045 37845 ft 464 kts 277°
2026-04-16 22:05 -6.96946 68.82585 37857 ft 464 kts 277°
2026-04-16 22:06 -6.96251 68.76139 37859 ft 464 kts 277°
2026-04-16 22:06 -6.95217 68.66483 37853 ft 464 kts 277°
2026-04-16 22:07 -6.94529 68.60018 37849 ft 464 kts 277°
2026-04-16 22:07 -6.93840 68.53555 37861 ft 464 kts 277°
2026-04-16 22:08 -6.93149 68.47082 37865 ft 464 kts 277°
2026-04-16 22:08 -6.92463 68.40661 37852 ft 464 kts 277°
2026-04-16 22:09 -6.91772 68.34203 37849 ft 464 kts 277°
2026-04-16 22:09 -6.91082 68.27734 37848 ft 464 kts 277°
2026-04-16 22:10 -6.90423 68.21268 37855 ft 465 kts 277°
2026-04-16 22:10 -6.89773 68.14799 37861 ft 464 kts 277°
2026-04-16 22:11 -6.89118 68.08323 37860 ft 464 kts 277°
2026-04-16 22:11 -6.88461 68.01857 37858 ft 464 kts 277°
2026-04-16 22:12 -6.87802 67.95395 37865 ft 464 kts 277°
2026-04-16 22:12 -6.87141 67.88926 37867 ft 464 kts 277°
2026-04-16 22:13 -6.86481 67.82466 37861 ft 464 kts 277°
2026-04-16 22:13 -6.85823 67.76038 37852 ft 464 kts 277°
2026-04-16 22:14 -6.85161 67.69579 37854 ft 464 kts 277°
2026-04-16 22:14 -6.84829 67.66344 37960 ft 465 kts 277°
2026-04-16 22:14 -6.84497 67.63113 38268 ft 463 kts 277°
2026-04-16 22:15 -6.84169 67.59908 38595 ft 460 kts 277°
2026-04-16 22:15 -6.83840 67.56712 38865 ft 458 kts 277°
2026-04-16 22:15 -6.83513 67.53531 39097 ft 456 kts 277°
2026-04-16 22:15 -6.83187 67.50361 39290 ft 456 kts 277°
2026-04-16 22:16 -6.82861 67.47195 39477 ft 455 kts 277°
2026-04-16 22:16 -6.82534 67.44022 39683 ft 454 kts 277°
2026-04-16 22:16 -6.81989 67.38746 39798 ft 457 kts 277°
2026-04-16 22:17 -6.81330 67.32370 39849 ft 459 kts 277°
2026-04-16 22:17 -6.80673 67.26012 39843 ft 453 kts 277°
2026-04-16 22:18 -6.80023 67.19726 39854 ft 450 kts 277°
2026-04-16 22:18 -6.79376 67.13484 39858 ft 448 kts 277°
2026-04-16 22:19 -6.78729 67.07255 39857 ft 447 kts 277°
2026-04-16 22:19 -6.78081 67.01027 39860 ft 448 kts 277°
2026-04-16 22:20 -6.77435 66.94822 39859 ft 449 kts 277°
2026-04-16 22:20 -6.76782 66.88551 39862 ft 451 kts 277°
2026-04-16 22:21 -6.76126 66.82266 39858 ft 452 kts 277°
2026-04-16 22:21 -6.75467 66.75953 39857 ft 453 kts 277°
2026-04-16 22:22 -6.74807 66.69642 39858 ft 454 kts 277°
2026-04-16 22:22 -6.74146 66.63328 39859 ft 454 kts 277°
2026-04-16 22:23 -6.73484 66.57017 39857 ft 454 kts 277°
2026-04-16 22:23 -6.72821 66.50696 39856 ft 453 kts 277°
2026-04-16 22:24 -6.72163 66.44432 39857 ft 452 kts 277°
2026-04-16 22:24 -6.71500 66.38138 39856 ft 452 kts 277°
2026-04-16 22:25 -6.70839 66.31862 39856 ft 451 kts 277°
2026-04-16 22:25 -6.70178 66.25593 39858 ft 450 kts 277°
2026-04-16 22:26 -6.69515 66.19316 39862 ft 450 kts 277°
2026-04-16 22:26 -6.68853 66.13062 39860 ft 450 kts 277°
2026-04-16 22:27 -6.68191 66.06812 39859 ft 449 kts 277°
2026-04-16 22:27 -6.67528 66.00557 39860 ft 449 kts 277°
2026-04-16 22:28 -6.66866 65.94315 39861 ft 449 kts 277°
2026-04-16 22:28 -6.66202 65.88069 39861 ft 449 kts 277°
2026-04-16 22:29 -6.65538 65.81827 39862 ft 449 kts 277°
2026-04-16 22:29 -6.64876 65.75617 39861 ft 449 kts 277°
2026-04-16 22:30 -6.64210 65.69370 39862 ft 449 kts 277°
2026-04-16 22:30 -6.63543 65.63126 39862 ft 449 kts 277°
2026-04-16 22:31 -6.62875 65.56878 39861 ft 449 kts 277°
2026-04-16 22:31 -6.62207 65.50638 39861 ft 449 kts 277°
2026-04-16 22:32 -6.61538 65.44394 39859 ft 449 kts 277°
2026-04-16 22:32 -6.60869 65.38159 39859 ft 449 kts 278°
2026-04-16 22:33 -6.60198 65.31910 39863 ft 449 kts 278°
2026-04-16 22:33 -6.59526 65.25666 39859 ft 449 kts 278°
2026-04-16 22:34 -6.58854 65.19426 39861 ft 449 kts 278°
2026-04-16 22:34 -6.58186 65.13228 39859 ft 449 kts 278°
2026-04-16 22:35 -6.57513 65.06991 39860 ft 448 kts 278°
2026-04-16 22:35 -6.56839 65.00755 39859 ft 448 kts 278°
2026-04-16 22:36 -6.56164 64.94513 39852 ft 448 kts 278°
2026-04-16 22:36 -6.55487 64.88266 39859 ft 449 kts 278°
2026-04-16 22:37 -6.54809 64.82012 39859 ft 450 kts 278°
2026-04-16 22:37 -6.54132 64.75783 39858 ft 451 kts 278°
2026-04-16 22:38 -6.53450 64.69508 39856 ft 452 kts 278°
2026-04-16 22:38 -6.52767 64.63229 39855 ft 452 kts 278°
2026-04-16 22:39 -6.52082 64.56944 39854 ft 452 kts 278°
2026-04-16 22:39 -6.51397 64.50662 39856 ft 452 kts 278°
2026-04-16 22:40 -6.50713 64.44391 39855 ft 451 kts 278°
2026-04-16 22:40 -6.50027 64.38123 39852 ft 451 kts 278°
2026-04-16 22:41 -6.49342 64.31861 39855 ft 450 kts 278°
2026-04-16 22:41 -6.48662 64.25653 39851 ft 450 kts 278°
2026-04-16 22:42 -6.47976 64.19405 39853 ft 449 kts 278°
2026-04-16 22:42 -6.47289 64.13145 39853 ft 449 kts 278°
2026-04-16 22:43 -6.46604 64.06913 39852 ft 448 kts 278°
2026-04-16 22:43 -6.45917 64.00677 39853 ft 448 kts 278°
2026-04-16 22:44 -6.45235 63.94483 39850 ft 448 kts 278°
2026-04-16 22:44 -6.44547 63.88248 39852 ft 448 kts 278°
2026-04-16 22:45 -6.43859 63.82025 39852 ft 448 kts 278°
2026-04-16 22:45 -6.43171 63.75796 39850 ft 448 kts 278°
2026-04-16 22:46 -6.42481 63.69568 39854 ft 448 kts 278°
2026-04-16 22:46 -6.41790 63.63330 39846 ft 448 kts 278°
2026-04-16 22:47 -6.41099 63.57098 39850 ft 449 kts 278°
2026-04-16 22:47 -6.40406 63.50861 39846 ft 449 kts 278°
2026-04-16 22:48 -6.39714 63.44633 39850 ft 449 kts 278°
2026-04-16 22:48 -6.39024 63.38436 39846 ft 448 kts 278°
2026-04-16 22:49 -6.38330 63.32207 39845 ft 448 kts 278°
2026-04-16 22:49 -6.37635 63.25972 39848 ft 448 kts 278°
2026-04-16 22:50 -6.36939 63.19742 39847 ft 448 kts 278°
2026-04-16 22:50 -6.36238 63.13521 39846 ft 448 kts 278°
2026-04-16 22:51 -6.35525 63.07300 39843 ft 447 kts 278°
2026-04-16 22:51 -6.34812 63.01083 39845 ft 447 kts 278°
2026-04-16 22:52 -6.34100 62.94869 39846 ft 447 kts 278°
2026-04-16 22:52 -6.33393 62.88704 39847 ft 447 kts 279°
2026-04-16 22:53 -6.32680 62.82487 39845 ft 447 kts 279°
2026-04-16 22:53 -6.31968 62.76285 39844 ft 447 kts 279°
2026-04-16 22:54 -6.31254 62.70076 39850 ft 447 kts 279°
2026-04-16 22:54 -6.30547 62.63874 39845 ft 447 kts 278°
2026-04-16 22:55 -6.29845 62.57665 39847 ft 446 kts 278°
2026-04-16 22:55 -6.29148 62.51504 39842 ft 446 kts 278°
2026-04-16 22:56 -6.28443 62.45297 39848 ft 446 kts 278°
2026-04-16 22:56 -6.27738 62.39094 39844 ft 446 kts 278°
2026-04-16 22:57 -6.27033 62.32894 39844 ft 446 kts 278°
2026-04-16 22:57 -6.26326 62.26691 39847 ft 446 kts 278°
2026-04-16 22:58 -6.25620 62.20494 39845 ft 447 kts 278°
2026-04-16 22:58 -6.24910 62.14282 39852 ft 447 kts 279°
2026-04-16 22:59 -6.24207 62.08124 39847 ft 447 kts 279°
2026-04-16 22:59 -6.23497 62.01921 39848 ft 447 kts 279°
2026-04-16 23:00 -6.22787 61.95718 39839 ft 447 kts 279°
2026-04-16 23:00 -6.22075 61.89505 39841 ft 447 kts 279°
2026-04-16 23:01 -6.21363 61.83302 39845 ft 447 kts 279°
2026-04-16 23:01 -6.20655 61.77139 39837 ft 447 kts 279°
2026-04-16 23:02 -6.19942 61.70938 39839 ft 447 kts 279°
2026-04-16 23:02 -6.19228 61.64734 39837 ft 447 kts 279°
2026-04-16 23:03 -6.18514 61.58533 39840 ft 447 kts 279°
2026-04-16 23:03 -6.17798 61.52331 39839 ft 447 kts 279°
2026-04-16 23:04 -6.17081 61.46123 39839 ft 447 kts 279°
2026-04-16 23:04 -6.16486 61.40974 39839 ft 446 kts 279°
2026-04-16 23:05 -6.15769 61.34773 39838 ft 446 kts 279°
2026-04-16 23:05 -6.15051 61.28574 39838 ft 446 kts 279°
2026-04-16 23:06 -6.14334 61.22383 39838 ft 446 kts 279°
2026-04-16 23:06 -6.13614 61.16181 39837 ft 446 kts 279°
2026-04-16 23:07 -6.12895 61.09993 39839 ft 446 kts 279°
2026-04-16 23:07 -6.12173 61.03785 39839 ft 446 kts 279°
2026-04-16 23:08 -6.11453 60.97596 39842 ft 446 kts 279°
2026-04-16 23:08 -6.10732 60.91404 39842 ft 446 kts 279°
2026-04-16 23:09 -6.10009 60.85208 39840 ft 446 kts 279°
2026-04-16 23:09 -6.09290 60.79050 39840 ft 446 kts 279°
2026-04-16 23:10 -6.08566 60.72853 39842 ft 446 kts 279°
2026-04-16 23:10 -6.07841 60.66652 39840 ft 447 kts 279°
2026-04-16 23:11 -6.07114 60.60448 39842 ft 447 kts 279°
2026-04-16 23:11 -6.06389 60.54257 39841 ft 447 kts 279°
2026-04-16 23:12 -6.05660 60.48047 39842 ft 447 kts 279°
2026-04-16 23:12 -6.04932 60.41848 39841 ft 447 kts 279°
2026-04-16 23:13 -6.04204 60.35651 39842 ft 447 kts 279°
2026-04-16 23:13 -6.03473 60.29441 39842 ft 447 kts 279°
2026-04-16 23:14 -6.02742 60.23234 39842 ft 447 kts 279°
2026-04-16 23:14 -6.02014 60.17058 39842 ft 447 kts 279°
2026-04-16 23:15 -6.00915 60.07746 39841 ft 447 kts 279°
2026-04-16 23:16 -6.00143 60.01540 39841 ft 446 kts 282°
2026-04-16 23:16 -5.98608 59.95534 39845 ft 444 kts 290°
2026-04-16 23:17 -5.96660 59.89684 39845 ft 444 kts 290°
2026-04-16 23:17 -5.94702 59.83802 39842 ft 444 kts 290°
2026-04-16 23:18 -5.92757 59.77902 39841 ft 444 kts 290°
2026-04-16 23:18 -5.90829 59.72026 39843 ft 445 kts 290°
2026-04-16 23:19 -5.88895 59.66128 39842 ft 445 kts 290°
2026-04-16 23:19 -5.86958 59.60222 39842 ft 445 kts 290°
2026-04-16 23:20 -5.85019 59.54314 39840 ft 445 kts 290°
2026-04-16 23:20 -5.83080 59.48410 39840 ft 445 kts 290°
2026-04-16 23:21 -5.81140 59.42503 39839 ft 445 kts 290°
2026-04-16 23:21 -5.79211 59.36635 39842 ft 445 kts 290°
2026-04-16 23:22 -5.77271 59.30732 39841 ft 445 kts 290°
2026-04-16 23:22 -5.75330 59.24831 39839 ft 445 kts 290°
2026-04-16 23:23 -5.73388 59.18929 39842 ft 445 kts 290°
2026-04-16 23:23 -5.71445 59.13027 39841 ft 445 kts 290°
2026-04-16 23:24 -5.69513 59.07158 39840 ft 445 kts 290°
2026-04-16 23:24 -5.67567 59.01250 39845 ft 445 kts 290°
2026-04-16 23:25 -5.65622 58.95348 39843 ft 445 kts 290°
2026-04-16 23:25 -5.63677 58.89447 39846 ft 445 kts 290°
2026-04-16 23:26 -5.61730 58.83542 39845 ft 445 kts 290°
2026-04-16 23:26 -5.59873 58.77914 39844 ft 445 kts 290°
2026-04-16 23:27 -5.57926 58.72013 39844 ft 445 kts 290°
2026-04-16 23:27 -5.55980 58.66119 39845 ft 445 kts 290°
2026-04-16 23:28 -5.54032 58.60219 39843 ft 445 kts 290°
2026-04-16 23:28 -5.52083 58.54319 39843 ft 445 kts 290°
2026-04-16 23:29 -5.50142 58.48446 39844 ft 445 kts 290°
2026-04-16 23:29 -5.48192 58.42546 39842 ft 445 kts 290°
2026-04-16 23:30 -5.46235 58.36628 39844 ft 445 kts 290°
2026-04-16 23:30 -5.44283 58.30729 39848 ft 446 kts 290°
2026-04-16 23:31 -5.42659 58.25823 39846 ft 446 kts 290°
2026-04-16 23:31 -5.40395 58.18985 39845 ft 446 kts 290°
2026-04-16 23:32 -5.38438 58.13073 39845 ft 446 kts 290°
2026-04-16 23:32 -5.36480 58.07163 39843 ft 446 kts 290°
2026-04-16 23:33 -5.34521 58.01254 39845 ft 446 kts 290°
2026-04-16 23:33 -5.32572 57.95375 39845 ft 447 kts 290°
2026-04-16 23:34 -5.30609 57.89456 39844 ft 447 kts 290°
2026-04-16 23:34 -5.28642 57.83527 39843 ft 447 kts 290°
2026-04-16 23:35 -5.26675 57.77600 39842 ft 447 kts 290°
2026-04-16 23:35 -5.24708 57.71677 39845 ft 448 kts 290°
2026-04-16 23:36 -5.22741 57.65753 39845 ft 448 kts 290°
2026-04-16 23:36 -5.20780 57.59851 39845 ft 448 kts 290°
2026-04-16 23:37 -5.18808 57.53917 39845 ft 448 kts 290°
2026-04-16 23:37 -5.16834 57.47980 39843 ft 448 kts 290°
2026-04-16 23:38 -5.14861 57.42046 39843 ft 449 kts 290°
2026-04-16 23:38 -5.12883 57.36103 39211 ft 459 kts 290°
2026-04-16 23:38 -5.11873 57.33069 38552 ft 457 kts 290°
2026-04-16 23:39 -5.10869 57.30054 37686 ft 456 kts 290°
2026-04-16 23:39 -5.09866 57.27039 36912 ft 455 kts 289°
2026-04-16 23:39 -5.08863 57.24027 36113 ft 455 kts 289°
2026-04-16 23:39 -5.07858 57.21009 35241 ft 457 kts 289°
2026-04-16 23:40 -5.06844 57.17964 34283 ft 462 kts 289°
2026-04-16 23:40 -5.05820 57.14893 33219 ft 468 kts 288°
2026-04-16 23:40 -5.04784 57.11780 32130 ft 472 kts 288°
2026-04-16 23:40 -5.03740 57.08647 31035 ft 476 kts 288°
2026-04-16 23:41 -5.02686 57.05486 30189 ft 476 kts 288°
2026-04-16 23:41 -5.01640 57.02345 29320 ft 474 kts 288°
2026-04-16 23:41 -5.00597 56.99216 28468 ft 471 kts 288°
2026-04-16 23:41 -4.99565 56.96121 27687 ft 467 kts 288°
2026-04-16 23:42 -4.98538 56.93042 26930 ft 463 kts 288°
2026-04-16 23:42 -4.97581 56.90172 26222 ft 460 kts 288°
2026-04-16 23:42 -4.96558 56.87107 25445 ft 457 kts 288°
2026-04-16 23:42 -4.95551 56.84088 24695 ft 454 kts 288°
2026-04-16 23:43 -4.94552 56.81097 23937 ft 452 kts 288°
2026-04-16 23:43 -4.93557 56.78116 23143 ft 450 kts 288°
2026-04-16 23:43 -4.92567 56.75149 22307 ft 447 kts 288°
2026-04-16 23:43 -4.91584 56.72205 21554 ft 443 kts 288°
2026-04-16 23:44 -4.90610 56.69287 20838 ft 439 kts 288°
2026-04-16 23:44 -4.89644 56.66394 20134 ft 436 kts 288°
2026-04-16 23:44 -4.88682 56.63514 19451 ft 435 kts 289°
2026-04-16 23:44 -4.87724 56.60647 18760 ft 434 kts 289°
2026-04-16 23:45 -4.86765 56.57778 18060 ft 434 kts 289°
2026-04-16 23:45 -4.85804 56.54903 17287 ft 433 kts 289°
2026-04-16 23:45 -4.84851 56.52052 16601 ft 431 kts 289°
2026-04-16 23:45 -4.83899 56.49206 15932 ft 429 kts 289°
2026-04-16 23:46 -4.82964 56.46411 15332 ft 426 kts 289°
2026-04-16 23:46 -4.82026 56.43605 14728 ft 423 kts 288°
2026-04-16 23:46 -4.81096 56.40825 14230 ft 417 kts 288°
2026-04-16 23:46 -4.80183 56.38095 13791 ft 409 kts 288°
2026-04-16 23:47 -4.79286 56.35412 13333 ft 402 kts 288°
2026-04-16 23:47 -4.78404 56.32778 12906 ft 395 kts 288°
2026-04-16 23:47 -4.77538 56.30189 12412 ft 390 kts 288°
2026-04-16 23:47 -4.76679 56.27621 11878 ft 387 kts 288°
2026-04-16 23:48 -4.75835 56.25101 11710 ft 373 kts 288°
2026-04-16 23:48 -4.75026 56.22684 11618 ft 359 kts 288°
2026-04-16 23:48 -4.74248 56.20360 11530 ft 345 kts 288°
2026-04-16 23:48 -4.73500 56.18126 11447 ft 331 kts 288°
2026-04-16 23:49 -4.72780 56.15978 11357 ft 319 kts 288°
2026-04-16 23:49 -4.72088 56.13909 11261 ft 307 kts 288°
2026-04-16 23:49 -4.71419 56.11912 11134 ft 298 kts 288°
2026-04-16 23:49 -4.70765 56.09959 10908 ft 293 kts 288°
2026-04-16 23:50 -4.70119 56.08030 10617 ft 291 kts 288°
2026-04-16 23:50 -4.69474 56.06106 10307 ft 290 kts 288°
2026-04-16 23:50 -4.68840 56.04214 10020 ft 289 kts 288°
2026-04-16 23:50 -4.68364 56.02285 9611 ft 285 kts 271°
2026-04-16 23:51 -4.68678 56.00332 9140 ft 283 kts 253°
2026-04-16 23:51 -4.69206 55.98431 8783 ft 283 kts 253°
2026-04-16 23:51 -4.69732 55.96541 8515 ft 280 kts 253°
2026-04-16 23:51 -4.70253 55.94663 8222 ft 278 kts 253°
2026-04-16 23:52 -4.70769 55.92792 7920 ft 277 kts 253°
2026-04-16 23:52 -4.71280 55.90933 7629 ft 276 kts 254°
2026-04-16 23:52 -4.71617 55.89703 7430 ft 276 kts 254°
2026-04-16 23:52 -4.72122 55.87855 7134 ft 274 kts 254°
2026-04-16 23:53 -4.72625 55.86009 6864 ft 273 kts 254°
2026-04-16 23:53 -4.73125 55.84172 6587 ft 272 kts 254°
2026-04-16 23:53 -4.73619 55.82353 6320 ft 271 kts 254°
2026-04-16 23:53 -4.73947 55.81147 6126 ft 270 kts 254°
2026-04-16 23:54 -4.74332 55.79727 5943 ft 267 kts 254°
2026-04-16 23:54 -4.74812 55.77958 5834 ft 259 kts 254°
2026-04-16 23:55 -4.75277 55.76245 5747 ft 249 kts 254°
2026-04-16 23:55 -4.75724 55.74598 5632 ft 241 kts 254°
2026-04-16 23:55 -4.76159 55.72995 5390 ft 237 kts 253°
2026-04-16 23:55 -4.76587 55.71417 5186 ft 232 kts 254°
2026-04-16 23:56 -4.77003 55.69884 4997 ft 220 kts 254°
2026-04-16 23:56 -4.77391 55.68445 4586 ft 208 kts 256°
2026-04-16 23:56 -4.77364 55.67055 4077 ft 203 kts 288°
2026-04-16 23:56 -4.76736 55.65803 3605 ft 199 kts 297°
2026-04-16 23:57 -4.76057 55.64615 3116 ft 195 kts 301°
2026-04-16 23:57 -4.75312 55.63488 2616 ft 193 kts 303°
2026-04-16 23:57 -4.74543 55.62381 2217 ft 192 kts 304°
2026-04-16 23:57 -4.73785 55.61296 1942 ft 188 kts 303°
2026-04-16 23:58 -4.73046 55.60236 1689 ft 181 kts 304°
2026-04-16 23:58 -4.72339 55.59220 1438 ft 174 kts 304°
2026-04-16 23:58 -4.71664 55.58250 1250 ft 166 kts 303°
2026-04-16 23:58 -4.71005 55.57304 1087 ft 160 kts 303°
2026-04-16 23:59 -4.70395 55.56429 1016 ft 149 kts 304°
2026-04-16 23:59 -4.69792 55.55593 686 ft 146 kts 303°
2026-04-16 23:59 -4.69237 55.54779 465 ft 139 kts 301°
2026-04-16 23:59 -4.68704 55.54017 317 ft 130 kts 303°
2026-04-17 00:00 -4.68183 55.53275 100 ft 127 kts 301°
2026-04-17 00:00 -4.67721 55.52598 27 ft 110 kts 301°
2026-04-17 00:00 -4.67331 55.52030 27 ft 83 kts 304°
2026-04-17 00:00 -4.67110 55.51702 28 ft 33 kts 301°
2026-04-17 00:01 -4.67011 55.51564 26 ft 20 kts 304°
2026-04-17 00:01 -4.66945 55.51465 29 ft 12 kts 302°
2026-04-17 00:01 -4.66905 55.51396 26 ft 11 kts 289°
2026-04-17 00:01 -4.66941 55.51337 25 ft 9 kts 214°
2026-04-17 00:02 -4.66988 55.51305 30 ft 0 kts 215°
2026-04-17 00:02 -4.66989 55.51304 30 ft 1 kts 213°
2026-04-17 00:02 -4.67009 55.51302 30 ft 3 kts 185°
2026-04-17 00:02 -4.67036 55.51299 28 ft 5 kts 194°
2026-04-17 00:03 -4.67067 55.51282 28 ft 5 kts 215°
2026-04-17 00:03 -4.67078 55.51273 28 ft 0 kts 217°
2026-04-17 00:03 -4.67079 55.51273 28 ft 0 kts 217°